sat.trackr.live / text

‹ back to catalog

QB50P2

NORAD 40032 · 2014-033Y

PAYLOAD ACTIVE UNKNOWN

§ Identity

Operator
Country
BEL
Launch date
2014-06-19
Launch site
DLS
Launch vehicle
Mass (kg)
RCS (m²)
0.06

Purposes: tech_demo

External: N2YO · Heavens-Above · Gunter

§ Orbital elements

Epoch: 2026-09-14T22:48:14.900544Z

Period
94.98 min
Inclination
98.0805°
Eccentricity
0.0006141
Mean motion
15.16186342 rev/d
Perigee alt
513.1 km
Apogee alt
521.6 km
Semi-major
6,895.5 km
B*
3.4341e-4
RAAN
260.5188°
Arg perigee
218.5410°
Mean anomaly
141.5384°
Rev number
66,626

§ Raw data

QB50P21 40032U 14033Y   26257.95017246  .00006559  00000+0  34341-3 0  99982 40032  98.0805 260.5188 0006141 218.5410 141.5384 15.16186342666263

JSON: /api/v1/satellites/40032 · /tle

For live sub-satellite position, see the globe view (requires WebGL).

§ Visibility from observer

Set your observer location to see the next 7 days of passes ≥ 10°. The values pass through the URL so the page stays shareable.

No JS? Fill the form by hand. The geolocation button needs JavaScript.

§ Radio — SatNOGS DB

ModeDescriptionDownlinkUplink
CW CW Beacon 145.880 MHz
BPSK PE0SAT - 1k2 BPSK TLM 145.879 MHz

2 transmitters · refreshed weekly from db.satnogs.org